PROBA-1

Last updated on Thu Sep 24 2026 00:03:56 GMT+0000 (Coordinated Universal Time)

1 26958U 01049B 26266.62740515 .00001190 00000+0 79675-4 0 9994 2 26958 97.9630 278.6359 0055243 148.3767 212.0799 15.07826119358456
UTC large
Height (km)
Speed (km/s)
/
Latitude / Longitude
Inclination (degrees)
Orbital Period (minutes)
Azimuth
Elevation
Range (km)
Doppler Factor

Next 0 passes for location: London (51.5072 / 0.1276)

No passes found over London.
PROBA-1